Weather History for Kamishli, Syria

Change the Weather History Date:

Tuesday, February 12, 2013

  Actual Average Record
Temperature  
Mean Temperature 48 °F -  
Max Temperature 54 °F 58 °F - ()
Min Temperature 43 °F 40 °F - ()
Degree Days  
Heating Degree Days 16    
Moisture  
Dew Point 43 °F    
Average Humidity 79    
Maximum Humidity 93    
Minimum Humidity 50    
Precipitation  
Precipitation 0.00 in 0.09 in - ()
Sea Level Pressure  
Sea Level Pressure 29.95 in    
Wind  
Wind Speed 11 mph ()    
Max Wind Speed 21 mph    
Max Gust Speed -    
Visibility 6.6 miles    
Events Rain    
T = Trace of Precipitation, MM = Missing Value Source: Averaged Metar Reports

Daily Weather History Graph

Daily Weather History Graph

Search for Another Location

Airport:

Trip Planner

Search our weather history database for the weather conditions in past years. The results will help you decide how hot, cold, wet, or windy it might be!

Date:

Astronomy

Feb. 12, 2013 Rise Set
Actual Time 6:07 AM EET 4:52 PM EET
Civil Twilight 5:40 AM EET 5:18 PM EET
Nautical Twilight 5:10 AM EET 5:49 PM EET
Astronomical Twilight 4:39 AM EET 6:19 PM EET
Moon 6:57 AM EET (2/12) 7:24 PM EET (2/12)
Length of Visible Light 11h 38m
Length of Day
10h 44m
Waxing Crescent, 6% of the Moon is Illuminated
Feb 12
Waxing Crescent
Feb 17
First Quarter
Feb 25
Full
Mar 4
Last Quarter
Mar 11
New

Hourly Weather History & Observations

Time (EET) Temp. Windchill Dew Point Humidity Pressure Visibility Wind Dir Wind Speed Gust Speed Precip Events Conditions
2:00 AM 47 °F - 44 °F 84% 29.93 in 2 mi West 13.4 mph - - Rain Light Rain
5:00 AM 44.6 °F 38.8 °F 42.8 °F 93% 29.89 in 3.7 mi WNW 11.5 mph - N/A   Overcast
6:00 AM 42.8 °F 36.6 °F 41.0 °F 93% 29.89 in 4.3 mi WNW 11.5 mph - N/A   Mostly Cloudy
7:00 AM 42.8 °F 37.5 °F 41.0 °F 93% 29.92 in 5.0 mi NW 9.2 mph - N/A   Mostly Cloudy
8:00 AM 46 °F - 43 °F 84% 29.98 in 12 mi NW 8.9 mph - -   Partly Cloudy
8:00 AM 46.4 °F 41.9 °F 42.8 °F 87% 29.95 in 6.2 mi NW 9.2 mph - N/A   Mostly Cloudy
9:00 AM 50.0 °F - 42.8 °F 76% 29.95 in 6.2 mi WNW 13.8 mph - N/A   Mostly Cloudy
10:00 AM 51.8 °F - 46.4 °F 82% 29.95 in 6.2 mi West 13.8 mph - N/A   Mostly Cloudy
11:00 AM 51.8 °F - 44.6 °F 76% 29.95 in 6.2 mi West 13.8 mph - N/A   Mostly Cloudy
12:00 PM 51.8 °F - 44.6 °F 76% 29.92 in 6.2 mi West 20.7 mph - N/A   Mostly Cloudy
1:00 PM 53.6 °F - 44.6 °F 72% 29.92 in 6.2 mi West 18.4 mph - N/A   Mostly Cloudy
2:00 PM 54 °F - 41 °F 50% 29.96 in 12 mi NW 15.7 mph - -   Partly Cloudy
2:00 PM 53.6 °F - 41.0 °F 62% 29.92 in 6.2 mi NW 16.1 mph - N/A   Mostly Cloudy
3:00 PM 51.8 °F - 42.8 °F 71% 29.95 in 6.2 mi NNW 18.4 mph - N/A   Mostly Cloudy
4:00 PM 51.8 °F - 41.0 °F 67% 29.95 in 6.2 mi WNW 11.5 mph - N/A   Mostly Cloudy
6:00 PM 48.2 °F - 42.8 °F 82% 29.98 in 6.2 mi West 4.6 mph - N/A   Mostly Cloudy
7:00 PM 46.4 °F 44.3 °F 42.8 °F 87% 30.01 in 6.2 mi NNW 4.6 mph - N/A   Mostly Cloudy
8:00 PM 46 °F - 42 °F 83% 30.05 in 12 mi WNW 8.9 mph - -   Partly Cloudy
8:00 PM 46.4 °F 41.9 °F 42.8 °F 87% 30.01 in - WNW 9.2 mph - N/A   Clear